Temp
-6 -6 -6 -6 -6 -6 -6 -6 -7 -7 -7 -7 -8 -8 -8 -9 -9 -9 -9 -9 -8 -8 -8 -8 -9 -9 -8 -8 -8 -8 -8 -8 -7 -7 -7 -8 -7 -7 -8 -8 -8 -8 -8
-6 -6 -6 -6 -6 -6 -6 -7 -7 -7 -7 -7 -7 -8 -8 -8 -8 -9 -9 -9 -9 -8 -9 -9 -8 -9 -9 -9 -8 -8 -9 -8 -8 -7 -8 -8 -8 -8 -8 -8 -8 -8 -8
-6 -6 -6 -6 -7 -7 -7 -7 -7 -7 -7 -7 -8 -7 -8 -8 -8 -8 -9 -9 -9 -8 -9 -9 -8 -9 -9 -10 -9 -8 -9 -9 -8 -8 -8 -8 -8 -8 -8 -8 -8 -8 -8
-6 -6 -6 -6 -7 -7 -7 -8 -8 -8 -8 -8 -8 -8 -8 -8 -8 -8 -8 -8 -9 -9 -8 -9 -9 -10 -10 -10 -10 -10 -9 -10 -10 -9 -9 -8 -8 -8 -8 -8 -8 -8 -8
-6 -6 -6 -6 -6 -7 -7 -8 -8 -8 -8 -9 -9 -9 -10 -9 -10 -10 -9 -8 -9 -9 -10 -9 -10 -10 -10 -10 -10 -10 -10 -10 -10 -10 -10 -9 -9 -9 -9 -8 -8 -8 -8
-6 -7 -7 -7 -7 -7 -8 -8 -8 -9 -9 -10 -10 -10 -10 -10 -10 -10 -10 -9 -9 -9 -10 -10 -10 -11 -10 -10 -10 -10 -10 -10 -10 -10 -10 -9 -9 -9 -8 -8 -8 -8 -8
-7 -7 -7 -8 -8 -8 -8 -9 -9 -10 -10 -10 -10 -11 -11 -10 -10 -10 -10 -10 -10 -10 -10 -11 -10 -10 -11 -10 -10 -10 -10 -10 -10 -10 -10 -9 -9 -9 -8 -8 -8 -8 -8
-7 -7 -8 -8 -8 -9 -10 -10 -11 -11 -11 -11 -11 -11 -11 -11 -11 -11 -11 -10 -10 -10 -11 -11 -10 -10 -11 -11 -10 -11 -10 -10 -11 -11 -10 -10 -9 -9 -9 -8 -8 -8 -8
-8 -8 -9 -9 -9 -9 -10 -11 -12 -12 -12 -12 -12 -12 -11 -11 -11 -11 -11 -10 -10 -11 -11 -11 -11 -11 -11 -10 -10 -11 -10 -11 -11 -11 -10 -10 -10 -9 -9 -9 -8 -8 -8
-9 -9 -9 -9 -10 -9 -10 -11 -12 -14 -13 -12 -12 -12 -12 -12 -12 -11 -11 -11 -11 -11 -11 -11 -11 -11 -11 -10 -11 -11 -11 -11 -11 -11 -11 -11 -10 -10 -10 -9 -8 -8 -8
-10 -9 -9 -10 -10 -10 -11 -11 -12 -14 -13 -13 -12 -12 -12 -12 -12 -12 -11 -11 -11 -11 -11 -11 -12 -11 -11 -11 -11 -11 -11 -11 -11 -11 -11 -10 -10 -10 -9 -9 -9 -9 -10
-10 -9 -10 -10 -11 -11 -11 -12 -12 -12 -12 -12 -12 -12 -12 -12 -12 -12 -11 -11 -11 -11 -11 -11 -11 -11 -11 -12 -12 -11 -11 -12 -11 -11 -11 -10 -10 -10 -10 -10 -9 -9 -9
-10 -10 -10 -11 -11 -11 -11 -12 -12 -13 -12 -12 -12 -12 -12 -12 -12 -11 -11 -11 -11 -11 -11 -11 -12 -12 -12 -12 -11 -11 -11 -11 -11 -11 -11 -11 -11 -11 -11 -10 -10 -10 -10
-10 -10 -11 -11 -11 -11 -12 -11 -12 -12 -12 -12 -12 -11 -11 -11 -11 -11 -11 -11 -11 -11 -11 -11 -12 -12 -12 -11 -11 -12 -11 -11 -11 -11 -10 -11 -11 -11 -11 -11 -10 -10 -10
-10 -10 -11 -11 -11 -11 -11 -11 -12 -12 -11 -11 -11 -11 -11 -11 -11 -11 -11 -11 -11 -11 -11 -12 -12 -12 -11 -11 -11 -11 -12 -11 -11 -11 -11 -11 -11 -11 -11 -11 -11 -11 -11
-11 -11 -11 -11 -11 -12 -11 -11 -12 -12 -12 -11 -11 -10 -11 -11 -11 -11 -11 -11 -11 -11 -11 -12 -12 -11 -11 -11 -11 -11 -11 -11 -11 -11 -11 -11 -11 -11 -12 -12 -12 -11 -11
-11 -11 -11 -11 -11 -12 -12 -12 -12 -12 -12 -11 -10 -11 -11 -11 -11 -11 -11 -11 -11 -11 -11 -11 -11 -11 -11 -11 -11 -12 -11 -11 -11 -11 -11 -11 -11 -11 -12 -12 -11 -11 -11
-11 -11 -11 -12 -12 -12 -12 -12 -12 -11 -11 -11 -11 -11 -11 -11 -11 -11 -11 -11 -11 -11 -11 -11 -12 -12 -12 -11 -11 -11 -11 -11 -11 -11 -11 -11 -11 -11 -11 -12 -11 -11 -11
-12 -12 -12 -12 -12 -12 -12 -12 -12 -11 -12 -11 -12 -11 -11 -11 -11 -11 -11 -11 -11 -11 -11 -12 -12 -12 -12 -11 -11 -11 -11 -11 -11 -11 -11 -11 -12 -12 -12 -12 -11 -11 -11
-12 -12 -12 -12 -12 -12 -12 -12 -12 -12 -11 -11 -11 -12 -11 -11 -11 -11 -11 -11 -11 -11 -12 -12 -12 -12 -12 -11 -11 -11 -11 -11 -11 -11 -11 -11 -11 -11 -11 -11 -11 -11 -11
-12 -12 -12 -12 -12 -12 -12 -12 -12 -12 -12 -11 -11 -11 -12 -12 -11 -12 -12 -11 -11 -11 -11 -12 -12 -12 -12 -11 -11 -11 -11 -12 -12 -12 -11 -11 -11 -11 -11 -11 -11 -11 -11
-12 -13 -13 -12 -12 -12 -12 -12 -12 -12 -12 -12 -11 -11 -11 -11 -12 -12 -12 -11 -11 -11 -11 -12 -12 -12 -12 -12 -12 -12 -12 -12 -12 -12 -12 -12 -11 -11 -11 -11 -11 -11 -11
-12 -13 -13 -13 -12 -12 -12 -12 -12 -12 -12 -12 -12 -12 -12 -11 -11 -12 -12 -12 -12 -12 -12 -12 -12 -12 -12 -12 -12 -12 -12 -12 -12 -12 -12 -12 -12 -12 -11 -11 -11 -11 -11
-13 -13 -13 -13 -13 -13 -13 -13 -12 -12 -12 -12 -12 -12 -12 -12 -12 -11 -12 -12 -12 -11 -11 -12 -11 -11 -12 -12 -11 -12 -12 -12 -12 -12 -12 -13 -13 -13 -12 -12 -11 -11 -11
-14 -14 -14 -13 -13 -13 -13 -13 -13 -13 -13 -12 -12 -12 -12 -12 -12 -12 -12 -12 -12 -12 -12 -11 -11 -12 -11 -11 -11 -12 -12 -12 -12 -12 -12 -12 -12 -13 -13 -13 -12 -12 -12
-14 -14 -14 -14 -14 -14 -14 -14 -13 -13 -13 -13 -13 -13 -13 -13 -12 -12 -12 -12 -12 -12 -12 -12 -12 -12 -12 -12 -11 -11 -11 -11 -12 -12 -12 -12 -12 -12 -12 -12 -12 -12 -12
Height
5884 5878 5874 5868 5863 5858 5854 5849 5846 5843 5837 5835 5830 5825 5821 5814 5816 5808 5813 5813 5811 5810 5807 5805 5802 5797 5795 5794 5793 5793 5792 5793 5797 5804 5805 5806 5805 5807 5809 5811 5815 5817 5820
5873 5867 5860 5856 5851 5845 5840 5836 5833 5830 5826 5822 5820 5817 5812 5808 5803 5795 5797 5800 5798 5797 5794 5792 5787 5783 5780 5779 5779 5780 5779 5778 5778 5787 5789 5792 5793 5794 5796 5799 5802 5806 5809
5861 5855 5849 5843 5837 5832 5827 5823 5817 5812 5809 5806 5803 5802 5799 5797 5793 5789 5784 5784 5782 5782 5779 5776 5774 5771 5769 5763 5761 5762 5761 5760 5762 5768 5774 5777 5779 5782 5783 5786 5790 5793 5796
5850 5844 5838 5831 5825 5818 5812 5808 5804 5799 5794 5792 5789 5787 5785 5782 5781 5776 5773 5769 5770 5766 5764 5762 5761 5758 5755 5753 5747 5746 5744 5742 5745 5751 5758 5762 5766 5768 5770 5773 5777 5781 5784
5835 5828 5821 5814 5808 5801 5795 5789 5785 5782 5779 5776 5774 5771 5769 5765 5762 5760 5759 5756 5753 5751 5749 5749 5747 5744 5742 5741 5737 5735 5734 5734 5735 5739 5744 5747 5752 5755 5757 5761 5763 5767 5769
5822 5814 5807 5799 5791 5783 5777 5770 5765 5762 5758 5756 5754 5752 5749 5747 5746 5745 5744 5741 5737 5734 5733 5734 5733 5731 5730 5727 5725 5724 5725 5723 5726 5729 5732 5736 5739 5741 5744 5747 5750 5753 5757
5810 5801 5792 5784 5776 5767 5758 5751 5745 5742 5738 5735 5735 5734 5734 5733 5730 5729 5727 5724 5721 5720 5720 5720 5720 5719 5715 5713 5714 5714 5715 5714 5716 5719 5722 5724 5727 5728 5731 5734 5737 5739 5745
5796 5786 5777 5768 5760 5751 5741 5734 5727 5722 5720 5718 5717 5716 5715 5716 5715 5713 5711 5709 5708 5707 5709 5707 5705 5703 5701 5698 5699 5702 5704 5705 5706 5710 5712 5713 5715 5716 5719 5722 5724 5727 5731
5781 5773 5763 5752 5743 5733 5723 5715 5710 5706 5704 5702 5701 5700 5699 5699 5698 5696 5695 5694 5694 5696 5695 5692 5690 5688 5687 5686 5687 5689 5695 5697 5700 5702 5702 5704 5705 5707 5709 5711 5714 5717 5719
5767 5759 5750 5740 5730 5720 5708 5699 5692 5691 5692 5690 5689 5687 5686 5685 5684 5682 5681 5681 5682 5681 5679 5677 5676 5677 5676 5675 5676 5682 5686 5690 5693 5694 5695 5696 5698 5699 5701 5702 5703 5704 5709
5756 5747 5738 5728 5720 5710 5700 5691 5683 5679 5680 5680 5679 5676 5673 5670 5670 5669 5667 5667 5667 5665 5665 5665 5665 5665 5667 5669 5671 5675 5678 5683 5686 5687 5690 5691 5691 5693 5694 5694 5694 5695 5699
5745 5737 5729 5720 5711 5702 5692 5686 5679 5674 5671 5670 5667 5664 5661 5658 5656 5655 5654 5654 5653 5654 5653 5652 5654 5656 5658 5661 5665 5668 5672 5676 5680 5683 5684 5685 5686 5687 5688 5689 5690 5691 5695
5736 5727 5720 5712 5704 5696 5688 5681 5675 5668 5665 5661 5657 5653 5650 5646 5643 5642 5642 5641 5640 5640 5643 5645 5647 5650 5652 5654 5658 5662 5665 5669 5674 5678 5679 5681 5684 5683 5684 5686 5686 5688 5691
5728 5720 5712 5705 5697 5689 5682 5676 5669 5664 5660 5655 5648 5642 5639 5636 5633 5633 5632 5631 5633 5636 5639 5640 5642 5644 5646 5648 5652 5658 5662 5666 5669 5672 5674 5676 5679 5681 5682 5683 5684 5684 5687
5721 5713 5705 5699 5691 5686 5678 5672 5665 5659 5653 5648 5642 5635 5632 5630 5629 5629 5628 5626 5630 5632 5634 5636 5638 5641 5642 5644 5646 5652 5657 5661 5664 5666 5669 5671 5675 5677 5679 5682 5684 5686 5688
5714 5707 5700 5694 5688 5682 5676 5670 5660 5654 5649 5642 5635 5631 5628 5625 5625 5625 5626 5627 5628 5629 5630 5631 5634 5636 5638 5640 5642 5647 5652 5656 5659 5662 5666 5669 5672 5674 5677 5679 5682 5685 5688
5707 5701 5695 5689 5683 5678 5672 5667 5663 5656 5646 5641 5631 5628 5625 5622 5622 5622 5623 5623 5624 5625 5626 5628 5630 5633 5634 5635 5638 5644 5648 5651 5654 5658 5661 5665 5668 5671 5674 5677 5680 5684 5687
5700 5695 5690 5685 5680 5674 5669 5663 5658 5653 5648 5639 5629 5626 5623 5623 5622 5622 5621 5621 5621 5622 5623 5624 5626 5630 5633 5634 5637 5640 5644 5648 5651 5654 5655 5660 5664 5667 5670 5674 5677 5679 5682
5696 5691 5686 5682 5677 5672 5666 5660 5655 5649 5643 5637 5630 5625 5622 5622 5621 5621 5620 5620 5620 5621 5622 5623 5625 5627 5629 5632 5634 5635 5640 5644 5646 5648 5648 5652 5659 5662 5666 5670 5673 5676 5680
5691 5686 5681 5677 5672 5668 5663 5658 5653 5648 5642 5637 5632 5627 5622 5622 5621 5620 5619 5619 5619 5619 5620 5621 5621 5623 5625 5627 5626 5621 5634 5638 5642 5644 5647 5649 5653 5657 5661 5665 5668 5671 5675
5686 5681 5676 5671 5666 5662 5658 5654 5650 5645 5641 5637 5632 5628 5624 5620 5619 5618 5617 5616 5615 5616 5616 5617 5618 5620 5621 5623 5625 5628 5631 5634 5636 5639 5642 5645 5649 5653 5656 5659 5662 5666 5671
5678 5674 5670 5665 5661 5656 5652 5648 5644 5641 5637 5633 5629 5626 5623 5621 5618 5615 5613 5614 5613 5611 5611 5612 5613 5615 5617 5618 5620 5623 5625 5628 5631 5633 5636 5639 5643 5646 5649 5653 5657 5661 5665
5671 5666 5662 5657 5654 5650 5646 5642 5638 5635 5632 5628 5625 5622 5620 5617 5614 5613 5610 5609 5608 5608 5607 5607 5607 5609 5610 5612 5615 5617 5619 5622 5624 5626 5629 5632 5635 5638 5642 5646 5650 5654 5658
5661 5657 5653 5649 5645 5642 5638 5634 5630 5626 5624 5621 5618 5616 5614 5612 5610 5607 5605 5604 5604 5602 5601 5599 5599 5598 5598 5602 5605 5608 5610 5612 5615 5618 5620 5623 5626 5629 5632 5636 5641 5645 5648
5653 5648 5643 5639 5636 5632 5628 5624 5621 5617 5614 5612 5609 5607 5605 5604 5602 5600 5598 5597 5597 5596 5596 5594 5592 5592 5591 5594 5595 5597 5600 5602 5604 5607 5610 5613 5616 5618 5622 5626 5630 5635 5638
5642 5638 5634 5629 5625 5621 5618 5614 5610 5607 5604 5601 5599 5597 5594 5593 5592 5590 5589 5588 5587 5587 5587 5587 5585 5584 5583 5584 5582 5584 5588 5589 5591 5593 5597 5601 5604 5607 5610 5614 5617 5621 5626
Wind_Speed
45 48 47 46 46 45 44 46 49 46 47 44 43 47 40 38 43 61 48 40 43 43 43 47 45 44 45 45 47 47 48 45 46 39 44 47 49 47 44 41 38 38 37
50 51 53 52 51 50 49 49 47 44 46 44 41 36 33 26 36 47 43 40 49 49 48 49 49 49 42 44 49 53 51 47 47 42 43 45 50 50 49 44 41 40 40
53 55 55 55 55 52 51 50 51 49 49 48 44 36 41 41 39 40 36 36 37 48 56 49 50 51 50 47 46 52 54 54 50 45 42 46 49 50 51 50 45 42 43
54 54 54 55 54 54 53 52 51 52 52 49 47 42 41 40 43 39 35 39 44 49 56 52 49 51 50 50 43 45 44 45 44 42 40 43 48 50 51 52 48 45 44
54 56 57 59 60 60 59 58 56 54 53 51 47 46 42 39 41 42 43 45 47 50 53 51 49 50 48 46 43 41 41 38 37 39 41 41 44 49 50 50 51 50 49
57 58 60 62 64 66 66 66 65 62 57 51 48 45 45 41 41 42 46 46 50 52 53 50 47 48 45 44 38 36 39 34 36 37 38 41 42 46 49 49 50 50 49
58 60 59 59 59 60 62 63 62 60 57 53 49 46 43 42 43 45 45 47 49 51 51 48 47 45 45 45 39 36 37 33 32 33 35 40 41 42 45 44 46 46 43
59 58 57 56 58 61 62 62 60 56 50 48 45 42 40 38 40 44 45 47 49 49 44 45 47 42 44 43 41 38 36 30 28 33 36 36 34 35 37 39 40 40 41
53 58 59 57 59 60 65 53 54 50 44 41 40 39 39 39 37 38 41 43 44 41 42 46 43 40 37 36 35 30 30 26 27 30 30 30 27 28 32 37 37 35 36
56 53 52 52 49 49 48 49 48 38 34 33 37 39 38 37 35 36 39 40 39 38 42 41 39 35 30 28 26 25 25 26 25 24 23 24 26 26 33 35 36 35 35
52 53 53 48 43 46 45 38 32 28 30 29 33 32 34 35 34 35 36 36 34 34 36 36 33 29 26 27 20 24 25 23 24 25 22 23 24 25 27 25 30 31 32
53 50 45 43 43 44 41 35 31 31 29 31 37 34 34 35 34 34 34 31 31 31 28 28 26 23 25 26 24 25 22 22 20 22 20 16 17 20 18 19 27 28 30
49 46 44 42 39 43 36 33 31 32 33 34 33 33 33 32 31 30 30 29 26 22 21 23 21 21 19 20 25 26 26 20 22 20 16 18 20 16 16 16 24 30 28
46 42 41 39 39 36 37 36 34 31 30 34 34 32 29 29 24 21 18 13 13 14 18 18 19 18 20 25 22 24 24 23 22 20 22 25 25 15 13 16 16 23 20
44 46 42 40 35 33 34 35 34 33 37 29 29 27 19 19 17 15 11 6 10 12 15 15 16 16 16 24 27 25 24 24 22 16 16 18 17 16 15 13 14 16 16
40 37 36 35 33 31 30 30 34 36 40 39 24 23 20 20 16 11 9 8 11 11 12 15 15 14 15 20 23 26 25 23 22 21 19 18 19 19 18 19 16 16 19
38 35 36 34 31 29 30 27 26 30 33 31 23 17 17 8 5 6 7 8 12 12 10 13 14 13 14 16 26 22 24 27 23 22 19 21 22 17 19 21 20 22 22
33 31 33 31 28 28 29 28 29 28 27 27 20 18 7 3 4 5 5 5 9 13 14 13 13 12 16 15 17 21 23 24 21 21 21 28 24 20 21 23 24 23 23
30 27 28 29 28 28 28 28 29 28 28 29 28 16 5 2 3 5 5 5 7 11 12 13 13 13 14 16 21 24 23 23 19 23 23 26 21 21 22 23 24 24 24
32 29 28 29 30 30 29 28 29 29 27 24 24 26 11 6 5 5 7 10 11 12 13 13 14 14 14 15 17 13 21 22 22 23 25 22 22 24 25 25 26 25 25
30 28 30 30 29 29 30 30 29 28 26 24 22 21 24 18 8 9 11 11 13 17 17 16 16 17 17 17 17 18 20 24 24 25 27 29 27 26 26 26 26 28 28
33 32 32 33 32 32 31 30 29 26 24 22 22 21 20 17 17 15 8 7 9 12 20 20 19 20 20 21 21 21 22 23 24 26 29 30 29 30 30 30 30 31 31
33 32 31 31 30 30 29 29 28 27 25 24 23 21 21 20 20 17 10 13 12 15 16 18 23 23 22 23 23 25 25 26 25 27 27 30 33 34 33 33 33 34 35
33 33 32 32 33 32 31 31 31 30 28 27 26 24 23 21 22 24 20 18 17 17 19 21 16 21 26 24 26 27 28 29 29 30 30 31 32 33 38 39 38 38 38
36 35 35 34 33 33 33 33 31 32 31 29 28 28 27 26 24 25 26 25 22 20 19 20 24 23 28 24 30 31 31 31 33 33 34 35 35 37 37 39 39 41 42
38 37 36 36 36 35 34 33 33 33 33 33 31 30 30 29 29 29 28 27 27 28 26 24 24 27 23 27 32 30 33 38 38 35 36 39 41 42 42 42 42 42 43
Wind_Direction
307 306 305 303 305 302 292 292 294 291 292 295 293 289 303 320 304 279 266 282 289 280 293 290 286 284 284 286 281 274 268 265 261 252 256 254 255 255 254 255 252 251 251
307 308 307 306 304 301 296 291 288 290 293 292 290 286 293 305 298 309 279 272 290 282 288 287 289 287 283 282 280 278 271 265 263 253 251 255 253 250 250 250 253 252 253
305 305 304 303 302 299 297 293 293 293 295 298 295 277 290 296 293 300 271 266 284 285 284 286 287 286 287 287 287 280 272 262 257 254 247 250 254 251 249 248 248 247 249
299 299 298 298 298 297 295 294 293 293 293 292 292 274 286 286 279 284 285 269 276 273 277 280 284 283 286 288 290 288 277 255 245 250 251 248 249 251 249 247 247 249 248
301 302 302 301 300 298 295 293 291 288 287 286 285 284 283 278 280 278 278 276 274 271 273 277 282 282 281 281 281 282 271 257 252 253 254 249 245 246 248 247 246 246 248
305 303 302 301 300 299 298 297 296 292 290 287 284 281 282 280 274 272 271 272 273 274 275 278 280 278 279 279 280 274 270 260 257 258 258 255 251 247 246 246 246 247 250
304 304 303 301 301 302 303 300 297 294 292 289 285 280 275 272 270 267 266 268 270 271 274 279 276 281 280 272 273 268 264 258 259 263 262 258 254 251 249 249 248 248 248
307 306 307 304 304 302 302 299 297 295 290 287 284 284 280 272 268 268 267 266 268 270 273 276 278 280 277 275 263 256 261 258 261 264 264 262 257 253 248 247 247 247 246
313 313 313 312 310 306 306 300 300 295 289 287 286 284 282 277 274 271 267 266 267 272 274 275 279 280 278 270 252 243 253 257 259 264 258 256 250 244 247 246 245 247 242
318 321 321 315 315 322 322 307 295 290 296 297 289 286 284 281 277 275 273 270 271 274 274 273 273 275 274 263 230 242 250 251 259 253 255 252 252 251 251 250 247 248 242
323 323 319 319 319 320 325 325 322 298 288 290 300 294 288 286 283 280 277 276 276 273 274 267 260 264 269 260 254 247 246 245 243 252 250 254 245 245 241 244 237 233 211
325 324 324 325 318 322 323 318 319 314 309 290 299 297 294 290 288 283 281 275 275 271 264 256 259 261 259 243 236 243 237 217 231 239 237 249 261 259 246 239 232 241 239
326 327 323 324 325 323 323 326 318 314 315 311 306 301 296 293 290 285 284 280 272 267 259 264 256 248 250 242 237 229 232 223 229 221 222 272 255 244 240 225 224 229 216
328 330 332 329 328 328 327 326 322 323 323 315 302 299 293 296 294 296 285 260 250 251 268 256 247 245 252 235 226 220 227 225 230 236 240 255 234 225 223 218 220 221 201
325 326 325 330 330 328 325 323 322 320 323 317 315 316 301 291 303 295 285 271 268 260 257 247 245 244 241 222 209 223 225 225 224 231 251 221 225 225 216 210 198 200 194
326 327 330 327 332 330 328 326 324 326 331 330 322 320 307 300 282 293 269 259 266 253 248 233 246 257 238 231 234 219 214 219 220 229 225 223 231 222 217 211 205 213 214
328 330 329 330 330 333 336 335 336 332 327 332 311 341 330 334 284 286 291 279 265 244 246 245 246 237 231 252 203 203 212 202 227 238 227 226 220 218 215 211 215 217 220
333 335 337 336 337 334 336 332 334 335 339 334 333 335 316 279 285 290 285 261 257 250 253 250 239 229 234 221 211 218 217 214 229 232 244 215 215 218 222 214 211 210 213
328 331 334 334 336 339 339 336 337 338 342 343 352 351 249 7 286 306 293 276 263 268 266 261 239 228 229 227 220 215 224 228 232 238 215 207 222 219 217 214 213 214 214
324 321 324 328 327 328 329 332 335 340 344 343 341 345 332 304 293 330 300 282 270 259 257 255 243 236 234 232 241 234 224 230 235 230 227 231 225 218 219 217 215 213 211
321 320 322 323 324 325 325 324 322 324 328 334 337 336 339 340 299 295 303 284 277 257 253 245 242 239 235 234 234 236 236 234 237 231 226 225 224 224 223 220 216 213 211
317 316 317 319 321 320 321 322 323 325 325 323 324 329 330 329 320 300 274 305 309 269 255 247 242 242 243 242 240 238 238 240 237 236 233 231 229 229 227 224 219 216 216
317 315 314 313 315 315 316 315 315 317 317 317 318 318 316 314 310 309 293 300 281 277 268 260 254 251 246 244 245 244 242 239 240 238 236 236 235 233 233 231 229 224 223
311 312 310 310 310 310 308 308 308 308 309 309 308 308 306 303 300 297 301 293 286 276 273 271 253 259 241 242 244 243 241 240 239 240 239 235 237 238 237 235 234 232 230
310 309 308 308 307 306 306 306 306 305 304 302 299 298 296 294 292 289 288 287 285 280 270 261 263 257 247 252 250 246 243 243 243 239 239 240 238 235 236 236 238 232 234
310 311 311 311 310 309 308 306 305 304 302 301 299 297 293 289 284 281 278 277 278 278 275 267 262 264 264 249 257 249 249 251 240 239 242 241 241 238 237 239 237 236 236